Wind_Speed
40 44 42 38 34 30 32 32 28 28 23 21 24 24 22 19 23 21 20 18 16 13 15 15 13 13 12 13 13 13 12 13 12 9 9 7 10 10 11 13 12 14 16
37 46 43 38 35 32 26 26 23 26 23 23 25 25 21 21 24 21 20 18 14 14 14 13 13 12 11 12 13 12 11 13 13 12 10 9 11 12 14 10 13 15 15
28 38 38 34 30 24 22 22 24 25 24 25 25 24 23 25 21 19 17 14 13 13 14 9 9 11 12 12 12 11 13 13 14 12 11 13 12 15 16 10 13 14 15
17 22 24 25 24 22 23 24 26 26 26 28 26 24 25 22 20 18 14 13 12 15 14 11 9 10 11 12 12 12 13 13 14 14 13 15 15 14 13 13 15 15 15
19 21 22 24 24 24 25 25 26 27 29 28 28 26 24 21 19 15 11 11 12 14 14 11 11 12 13 13 12 14 15 15 15 15 16 18 17 15 18 17 15 17 17
17 24 27 27 25 25 24 24 28 29 30 29 28 25 22 18 16 16 10 10 12 11 10 11 13 14 14 14 13 15 14 16 16 16 19 21 19 17 16 19 18 19 19
15 24 25 23 24 26 26 29 27 31 31 29 27 22 20 19 18 15 13 13 12 11 11 12 13 13 14 14 15 13 15 17 16 16 16 20 19 20 18 17 19 23 24
16 22 23 26 27 28 29 29 30 30 31 29 25 21 18 18 18 16 16 15 13 12 11 11 10 12 13 13 13 12 13 14 12 13 15 14 16 18 17 17 21 23 21
4 17 27 30 33 33 28 29 33 31 29 27 23 20 20 18 18 18 16 15 14 13 13 13 11 10 9 9 11 12 14 14 14 12 11 12 13 18 21 18 20 24 23
13 16 30 33 34 31 26 31 29 28 26 25 24 22 19 16 17 15 14 14 14 13 13 11 10 10 9 12 10 12 15 16 13 16 14 15 16 17 19 18 21 25 29
19 20 32 33 28 26 31 29 27 27 26 24 23 20 17 15 14 13 13 13 10 8 9 10 10 11 9 10 11 10 12 15 17 15 17 18 20 20 19 18 16 18 28
7 36 35 33 29 32 32 29 26 25 26 24 21 19 16 14 12 13 13 12 9 8 7 8 10 10 10 11 12 11 11 11 13 17 20 20 19 18 17 18 14 13 16
28 31 32 30 30 32 34 30 28 25 23 23 22 19 17 15 15 14 13 12 10 8 5 9 10 10 13 14 14 11 10 10 17 20 20 21 19 18 16 18 18 18 19
36 32 28 28 30 32 29 28 26 25 23 23 22 19 16 17 16 15 14 14 12 9 9 10 9 13 15 16 16 12 7 4 13 18 19 19 18 17 17 17 18 18 18
34 32 30 30 32 32 30 26 24 22 21 22 20 16 16 18 15 12 10 11 10 10 12 12 13 17 19 20 17 13 9 6 11 14 15 16 18 19 19 16 18 18 18
31 33 31 30 30 29 28 26 22 20 18 16 12 7 9 11 13 11 10 9 10 11 15 15 17 18 20 21 18 16 11 10 10 12 13 14 14 18 17 18 19 19 19
31 33 33 30 29 29 26 24 25 23 20 17 14 11 10 12 12 10 8 10 12 13 17 18 17 17 18 17 19 13 12 12 11 12 11 11 14 15 17 15 17 17 16
35 31 29 31 28 25 24 25 24 25 25 23 19 17 14 11 9 8 9 12 15 16 18 17 18 18 15 14 13 12 12 12 11 12 12 11 12 16 16 16 13 14 16
29 30 30 28 25 22 21 21 21 21 23 23 23 21 17 14 12 8 10 9 13 14 16 16 17 18 18 15 14 13 11 10 9 11 12 11 12 14 16 17 16 15 18
30 27 27 24 22 20 19 19 18 18 22 23 26 23 20 19 14 14 12 10 10 12 13 15 17 18 16 18 15 12 11 11 11 9 10 9 10 11 11 14 15 18 21
31 28 24 22 20 18 16 16 18 20 23 25 24 21 18 15 13 17 15 12 9 8 10 10 12 14 14 19 15 13 10 10 11 10 11 10 9 11 9 9 13 16 20
29 24 23 22 20 17 14 16 19 21 23 25 24 21 16 13 18 17 14 10 8 10 10 10 10 12 14 16 16 14 11 10 10 11 11 10 9 9 8 8 10 11 13
28 25 22 19 18 17 17 18 18 18 21 21 19 19 17 19 18 17 15 10 7 9 10 10 13 14 15 15 16 16 15 13 10 11 11 11 9 8 8 8 8 9 11
25 25 23 17 15 16 16 17 16 17 22 21 21 21 22 22 18 14 11 8 8 9 11 12 11 11 10 9 9 9 10 10 9 9 8 8 8 8 8 9 9 10 13
24 23 18 19 18 16 18 20 19 24 24 24 26 27 24 19 17 14 12 11 12 12 12 10 11 10 8 7 6 7 6 7 7 6 9 9 10 11 11 12 12 12 12
21 22 20 19 21 21 23 23 24 25 27 29 28 26 22 21 19 17 14 13 13 14 13 11 10 11 9 8 8 7 6 7 7 8 4 4 3 1 5 7 7 9 8
Wind_Direction
231 231 230 230 239 240 245 251 249 238 236 227 226 226 224 223 200 209 205 211 216 228 234 237 238 244 238 239 235 243 248 244 244 246 247 239 214 207 192 186 182 174 181
233 232 230 237 232 238 238 238 234 227 228 226 218 222 215 201 206 206 204 211 223 232 226 226 235 232 234 233 234 249 236 236 238 242 235 214 192 183 183 183 170 170 175
226 225 222 218 223 225 227 226 220 222 229 215 211 214 198 200 200 202 203 219 230 218 211 218 223 234 236 232 239 244 234 230 232 232 231 209 192 183 190 186 175 169 172
218 209 211 212 214 222 221 214 216 224 214 204 204 193 193 199 197 198 211 214 217 212 215 224 237 244 238 239 245 245 239 229 226 220 224 206 198 191 197 193 173 173 173
219 216 217 212 215 213 214 215 217 206 201 198 183 183 192 190 195 204 192 213 224 211 215 231 247 245 242 240 237 244 243 225 210 210 206 196 192 188 197 197 186 179 171
224 216 213 203 204 208 207 194 200 193 191 184 179 180 179 184 188 185 191 199 202 217 229 244 250 242 246 242 240 248 239 227 211 208 200 201 199 199 199 193 193 171 162
227 206 200 203 209 197 195 194 188 185 179 177 172 174 180 182 181 188 208 218 231 235 245 249 244 241 241 247 255 223 229 216 219 217 215 213 202 202 200 200 194 184 181
207 220 218 212 198 189 184 188 178 175 171 169 172 177 183 190 190 202 213 218 228 232 240 237 238 241 250 246 221 224 202 203 208 215 230 231 226 206 206 210 197 191 186
226 229 220 205 183 168 166 167 170 168 170 173 177 186 186 184 200 210 215 223 230 233 230 232 240 236 221 211 201 200 194 199 203 206 215 227 217 212 206 199 198 196 185
227 219 215 187 174 161 167 164 165 169 174 182 185 184 186 199 202 209 223 227 220 218 224 230 223 213 220 207 205 204 205 199 200 205 201 174 176 192 200 201 207 197 183
230 205 197 176 164 176 165 167 171 170 173 178 180 184 193 199 209 223 214 203 202 215 219 216 215 212 214 199 200 208 207 194 201 209 180 172 172 180 187 193 203 215 200
275 183 179 165 170 166 166 165 171 174 177 180 186 191 195 205 207 195 188 187 192 210 216 214 209 204 199 188 182 178 189 205 199 178 173 174 175 181 188 192 190 192 206
249 171 160 165 166 168 165 164 174 181 183 186 191 198 199 201 190 186 184 181 193 207 209 194 196 196 184 178 175 178 187 185 178 177 180 179 181 180 179 183 191 200 214
167 153 158 164 165 168 170 176 180 182 189 192 194 196 198 194 190 190 189 190 196 211 188 183 186 176 169 168 169 171 173 187 182 185 185 184 178 183 185 190 194 197 201
160 161 163 166 173 173 179 182 187 193 200 196 196 201 201 187 183 181 186 194 195 181 187 169 162 164 163 170 173 173 176 179 185 186 189 188 185 186 195 194 192 194 206
169 170 171 174 176 178 183 184 187 190 189 190 189 193 170 169 173 172 175 175 171 181 178 169 166 163 167 176 177 178 183 178 179 183 187 194 198 196 197 195 196 202 204
173 175 177 177 177 179 182 184 180 183 182 179 176 164 163 156 169 165 167 172 176 179 178 172 170 179 183 193 184 181 187 183 187 194 197 203 207 204 199 199 204 208 211
176 169 170 174 176 178 182 184 185 184 179 179 178 169 164 156 159 155 166 170 168 180 183 180 180 179 175 177 182 182 185 190 199 202 204 210 205 205 206 212 215 209 203
169 165 169 170 172 174 178 183 188 189 187 184 175 171 169 174 164 157 163 174 167 178 187 180 184 182 176 178 179 185 194 192 201 197 196 201 198 201 209 215 218 208 198
164 161 167 174 173 176 181 185 186 187 186 182 173 172 171 175 170 162 161 152 157 171 175 187 197 193 192 187 185 186 186 186 187 182 188 201 209 217 222 224 224 218 215
171 168 174 173 171 175 177 176 175 177 178 176 171 171 179 180 165 161 147 139 137 145 167 171 181 200 209 188 184 175 175 183 185 189 193 199 219 229 233 228 224 224 226
181 175 174 172 175 170 166 167 170 172 171 169 167 168 167 165 162 154 148 147 141 138 128 151 167 178 177 186 189 193 204 212 214 212 210 215 226 235 236 229 224 225 229
183 179 176 172 178 175 169 166 165 167 168 166 164 161 158 157 161 162 166 167 150 144 143 141 154 159 166 174 190 206 214 216 216 220 221 223 223 224 233 235 239 244 252
175 179 174 173 170 168 169 162 159 164 166 163 157 151 152 159 163 167 167 161 150 153 141 136 141 151 163 167 172 179 184 193 194 192 204 216 240 229 234 245 256 257 260
189 189 186 180 168 166 159 153 156 162 162 158 155 154 155 159 160 164 162 156 150 159 157 157 160 168 172 167 166 181 187 197 208 227 242 241 245 248 254 261 270 271 266
184 190 181 173 167 167 162 159 160 161 162 159 158 158 161 166 165 164 162 157 161 167 167 165 163 163 167 176 177 185 202 208 223 240 213 214 229 317 271 249 246 219 222
Height
1365 1372 1376 1383 1388 1392 1396 1399 1402 1406 1409 1414 1418 1421 1424 1427 1433 1435 1439 1442 1444 1447 1449 1450 1452 1453 1455 1457 1458 1460 1461 1463 1464 1463 1464 1466 1467 1469 1470 1473 1475 1478 1481
1355 1363 1371 1376 1380 1384 1388 1393 1396 1401 1405 1409 1413 1416 1421 1425 1429 1432 1436 1439 1442 1444 1446 1448 1449 1450 1452 1454 1455 1457 1458 1461 1462 1462 1463 1465 1466 1468 1471 1473 1476 1479 1482
1350 1356 1362 1367 1373 1376 1381 1386 1391 1397 1401 1405 1408 1412 1418 1423 1427 1431 1434 1437 1439 1441 1444 1445 1447 1448 1450 1451 1453 1454 1456 1458 1459 1460 1462 1464 1466 1468 1472 1474 1477 1480 1483
1348 1352 1356 1360 1365 1368 1375 1380 1386 1391 1396 1401 1404 1409 1415 1420 1425 1429 1432 1435 1437 1439 1442 1444 1445 1446 1447 1449 1450 1452 1453 1455 1457 1458 1460 1463 1465 1468 1471 1474 1477 1480 1483
1343 1347 1351 1355 1359 1365 1371 1375 1380 1386 1391 1397 1402 1408 1413 1418 1423 1426 1430 1432 1435 1437 1439 1441 1442 1443 1444 1446 1447 1449 1450 1452 1454 1457 1459 1461 1464 1467 1470 1473 1477 1479 1483
1336 1340 1346 1351 1356 1361 1366 1371 1377 1383 1388 1395 1401 1406 1411 1416 1420 1424 1428 1431 1433 1435 1437 1438 1439 1440 1442 1443 1444 1445 1447 1449 1452 1455 1457 1460 1463 1466 1469 1471 1476 1479 1483
1336 1340 1345 1350 1354 1358 1362 1368 1374 1381 1387 1393 1400 1406 1410 1414 1418 1423 1428 1430 1431 1433 1434 1435 1436 1437 1438 1440 1440 1443 1445 1448 1450 1455 1457 1459 1462 1466 1469 1473 1476 1479 1481
1337 1341 1344 1348 1351 1355 1361 1368 1373 1380 1387 1393 1400 1405 1409 1413 1417 1422 1425 1427 1429 1430 1431 1432 1433 1434 1436 1437 1438 1440 1443 1446 1450 1453 1457 1460 1463 1466 1470 1474 1476 1480 1484
1334 1338 1341 1344 1347 1353 1361 1367 1373 1381 1387 1393 1399 1404 1408 1411 1415 1419 1422 1424 1426 1427 1429 1430 1431 1432 1433 1435 1437 1438 1442 1445 1448 1452 1455 1459 1462 1465 1469 1473 1476 1479 1483
1334 1336 1341 1342 1347 1354 1361 1368 1375 1382 1387 1393 1398 1403 1407 1410 1413 1417 1419 1421 1423 1425 1426 1427 1429 1430 1431 1434 1436 1439 1441 1443 1447 1450 1452 1456 1460 1464 1468 1473 1476 1478 1482
1330 1334 1337 1342 1348 1356 1363 1370 1377 1382 1388 1393 1398 1402 1406 1409 1412 1414 1416 1419 1421 1423 1424 1426 1427 1429 1431 1433 1436 1439 1441 1444 1447 1449 1452 1455 1459 1463 1467 1472 1475 1478 1481
1317 1324 1335 1344 1349 1357 1363 1370 1377 1383 1388 1393 1397 1401 1405 1408 1410 1412 1415 1418 1420 1422 1423 1424 1425 1427 1430 1433 1437 1440 1442 1444 1446 1449 1453 1456 1460 1463 1467 1471 1476 1479 1483
1323 1331 1338 1346 1352 1359 1364 1370 1377 1383 1387 1392 1397 1401 1404 1406 1409 1412 1414 1416 1419 1420 1421 1422 1424 1427 1430 1434 1437 1441 1443 1445 1447 1451 1454 1457 1462 1465 1468 1471 1475 1478 1482
1328 1333 1341 1347 1354 1362 1367 1372 1377 1382 1387 1391 1396 1400 1403 1406 1408 1411 1413 1415 1417 1418 1420 1422 1423 1426 1431 1435 1439 1442 1445 1447 1449 1451 1455 1459 1462 1465 1468 1471 1474 1477 1480
1330 1337 1343 1349 1357 1362 1367 1373 1378 1383 1387 1391 1395 1399 1401 1404 1408 1410 1412 1414 1415 1417 1420 1421 1424 1427 1431 1436 1440 1443 1446 1448 1450 1453 1456 1459 1462 1466 1468 1471 1474 1478 1480
1331 1338 1343 1352 1358 1363 1368 1373 1378 1384 1388 1393 1397 1400 1402 1405 1407 1409 1412 1413 1415 1417 1419 1422 1425 1429 1433 1436 1440 1443 1446 1449 1452 1454 1458 1460 1463 1465 1468 1470 1473 1476 1479
1333 1339 1346 1352 1359 1364 1368 1373 1377 1383 1388 1393 1397 1401 1404 1405 1408 1410 1411 1412 1414 1417 1420 1423 1426 1430 1433 1437 1440 1444 1447 1449 1453 1455 1458 1460 1463 1465 1467 1470 1473 1475 1476
1335 1340 1346 1354 1359 1363 1368 1373 1378 1382 1386 1390 1396 1401 1404 1406 1408 1410 1411 1412 1414 1417 1420 1424 1427 1431 1435 1439 1442 1445 1448 1450 1453 1455 1458 1460 1462 1464 1467 1469 1472 1473 1476
1338 1344 1350 1354 1359 1364 1369 1374 1379 1382 1386 1390 1394 1400 1403 1407 1409 1411 1412 1414 1414 1417 1420 1424 1428 1432 1436 1440 1443 1446 1449 1451 1453 1455 1457 1459 1461 1463 1466 1468 1471 1473 1475
1342 1346 1351 1356 1362 1367 1371 1375 1378 1382 1386 1390 1394 1398 1402 1406 1408 1411 1413 1415 1416 1419 1421 1425 1428 1432 1436 1440 1443 1446 1448 1451 1453 1455 1457 1459 1461 1463 1465 1467 1469 1472 1474
1342 1347 1353 1359 1364 1368 1372 1375 1379 1383 1387 1391 1395 1400 1403 1406 1409 1412 1415 1417 1419 1420 1422 1425 1428 1431 1433 1438 1443 1446 1449 1451 1453 1455 1457 1459 1461 1462 1464 1465 1467 1469 1472
1346 1351 1356 1361 1366 1370 1374 1377 1381 1385 1389 1393 1397 1401 1405 1408 1411 1415 1418 1420 1421 1422 1423 1425 1428 1431 1435 1439 1443 1446 1448 1450 1452 1454 1456 1458 1460 1462 1463 1464 1466 1468 1470
1347 1353 1359 1364 1367 1371 1376 1380 1383 1387 1391 1395 1398 1402 1406 1410 1414 1416 1418 1420 1422 1424 1426 1427 1429 1432 1435 1438 1441 1444 1447 1449 1451 1452 1454 1456 1458 1460 1461 1463 1465 1466 1467
1349 1355 1360 1365 1369 1373 1378 1382 1385 1389 1392 1396 1399 1404 1408 1411 1415 1418 1420 1422 1424 1426 1429 1430 1432 1435 1437 1439 1442 1444 1446 1448 1449 1450 1452 1454 1456 1457 1458 1458 1461 1462 1463
1351 1355 1361 1366 1370 1375 1380 1382 1385 1389 1394 1398 1401 1405 1410 1414 1416 1419 1421 1423 1426 1428 1430 1432 1434 1436 1438 1439 1442 1444 1446 1448 1449 1451 1452 1453 1453 1455 1456 1457 1458 1458 1459
1352 1357 1362 1367 1372 1376 1381 1384 1387 1391 1395 1400 1404 1408 1411 1414 1417 1419 1422 1424 1427 1429 1431 1433 1435 1437 1439 1440 1443 1444 1446 1447 1448 1449 1450 1451 1452 1453 1453 1454 1454 1456 1456